FENGYUN 1C DEB

Satellite information

Favourite Embed

Satellite Type and Status

DEBRISIN ORBIT

Key statistics

Satellite FENGYUN 1C DEB at a glance.

Uptime

9494

Days in orbit

Revolutions

≈ 13.8

Per day

Orbit

SSO

Sun Synchronous Orbit

Inclination

98.9

Latest

Satellite identification and parameters

Extended collection of information and parameters for FENGYUN 1C DEB.

Object identification

Identified? True

Debris? True

Object name: FENGYUN 1C DEB

International designator: 1999-025AAR

Object number (NORAD): 30330

Object ID (CCSDS): 30330

Country: PEOPLES REPUBLIC OF CHINA (PRC)

Current information (Y/N): Y

RCS size: SMALL

Orbital parameters

Period: 104.257 minutes

Inclination: 98.8771 deg

SMA: 7337.776 km

Apoapsis: 1101.661 km

Periapsis: 817.621 km

RAAN: 130.7163 deg

Eccentricy: 0.0193546

Argument of periapsis: 60.2942 deg

Mean anomaly: 61.9509 deg

Mean motion: 13.81198453 rev/day

Mean motion (dot): 0.00001731 rev/day2

B* drag term: 0.0014498 1/REarth

Two-line elements (TLE)

Creation date: May 7, 2025, 3:14 a.m.

Reference frame: TEME

Reference center: EARTH

Epoch: May 5, 2025, 12:50 p.m. UTC

TLE line 0: 0 FENGYUN 1C DEB

TLE line 1: 1 30330U 99025AAR 25125.53504962 .00001731 00000-0 14498-2 0 9993

TLE line 2: 2 30330 98.8771 130.7163 0193546 60.2942 61.9509 13.81198453916035

Live tracking on map

Real-time ground track for satellite FENGYUN 1C DEB.

In-orbit conjunctions

A list of the most updated potential collisions computed for object FENGYUN 1C DEB.

Target Orbit TCA Probability of collision Miss distance Type
DMSP 5D-2 F8 DEB SSO 2024-08-13 10:57:10 0.0002172817 268.0 (m) DEBRIS
NIMBUS 2 DEB SSO 2024-06-14 05:45:02 0.0004596649 418.0 (m) DEBRIS

Associated space launch

Chinese polar orbiting meteorological satellite

FENGYUN 1C DEB was lifted into orbit during the mission ‘Long March 4B | Feng Yun 1C’, on board a Long March 4B space rocket.

The launch took place on May 10, 1999, 1:33 a.m. from Launch Complex 7.

For more information about the launch, click the button.

Launch to space Long March 4B | Feng Yun 1C
Long March 4B | Feng Yun 1C

Agency: N/A

Status: Launch Successful

Launch date: May 10, 1999, 1:33 a.m. UTC

Rocket: Long March 4B

Launch pad: Launch Complex 7

Location: Taiyuan Satellite Launch Center, People's Republic of China

...

Latest news about this satellite

There are no fresh news available about this satellite. Check back as we update our databases every day.


Newsletter sign-up

Weekly statistics, charts and insights to help you stay on top of the space industry.